Location: Breitenfeld
(46.8500°N, 15.6333°E)
Time: 07:55:45
(UTC+00:00)

MOS 1 Rocket - Pass Details

Date: 09 April 2020
Orbit: 614 x 830 km, 97.4° (Epoch: 03 June)

Event Time Altitude Azimuth Distance (km) Brightness Sun altitude
Rises 19:14:47 0° 13° (NNE) 3,349 7.1 -16.1°
Reaches altitude 10° 19:17:08 10° 14° (NNE) 2,429 6.3 -16.4°
Maximum altitude 19:22:35 83° 103° (ESE) 844 3.6 -17.2°
Drops below altitude 10° 19:28:01 10° 191° (S) 2,425 5.9 -18.0°
Sets 19:30:21 0° 192° (SSW) 3,343 6.6 -18.3°
